User: anonymous   Login
Location: *
(2.5500°S, 65.9667°W)
Time: 11:51:20
(UTC+00:00)
Language:

Intelsat 5-3 Rocket - Orbit

View from above orbital plane
View from above orbital plane
View from above satellite
View from above satellite

Ground track
Ground track

The orbit data is extracted from the following two-line orbital elements,

1 13007U 81119B   22017.90031740  .00012959 -17807-5  59038-3 0  9990
2 13007  23.5395 271.1956 2997332 217.5729 117.2243  9.35733700 30830
Epoch (UTC): 17 January 2022 21:36:27
Eccentricity: 0.2997332
inclination: 23.5395°
perigee height: 283 km
apogee height: 5985 km
right ascension of ascending node: 271.1956°
argument of perigee: 217.5729°
revolutions per day: 9.35733700
mean anomaly at epoch: 117.2243°
orbit number at epoch: 3083

The dashed part of the orbit path shows where the satellite is in the earth's shadow,  

DLR